Regional Weather Roundup
Issued by NWS

Home | Current Version | Previous Version | Text Only | Print | Product List | Glossary Off
Versions: 1 2 3 4 5 6 7 8 9 10 11 12 13 14 15 16 17 18 19 20 21 22 23 24 25 26 27 28 29 30 31 32 33 34 35 36 37 38 39 40 41 42 43 44 45 46 47 48 49 50

365
ASUS43 KLMK 190410
RWRKY
KENTUCKY REGIONAL WEATHER ROUNDUP
NATIONAL WEATHER SERVICE LOUISVILLE KY
1200 AM EDT THU OCT 19 2017

NOTE "FAIR" INDICATES FEW OR NO CLOUDS BELOW 12,000 FEET
WITH NO SIGNIFICANT WEATHER AND/OR OBSTRUCTIONS TO VISIBILITY.

KYZ001>023-026-027-061>063-070>075-190500-
WESTERN AND SOUTH CENTRAL KENTUCKY

CITY           SKY/WX    TMP DP  RH WIND       PRES   REMARKS
PADUCAH        CLEAR     56  45  66 SW3       30.18R
HENDERSON      CLEAR     55  47  74 S5        30.20S
OWENSBORO      CLEAR     54  46  74 S5        30.21S
HOPKINSVILLE   CLEAR     57  46  66 CALM      30.21R
BOWLING GREEN  CLEAR     53  47  79 CALM      30.22F
GLASGOW        CLEAR     46  46 100 CALM      30.23S
$$

KYZ024-025-028>034-038-045-046-053-190500-
NORTH CENTRAL KENTUCKY

CITY           SKY/WX    TMP DP  RH WIND       PRES   REMARKS
LOUISVILLE/SDF CLEAR     57  47  69 S3        30.21S
LOUISVILLE/LOU CLEAR     53  48  83 S5        30.22S
FORT KNOX      CLEAR     47  44  88 CALM      30.20S
$$

KYZ035>037-039>044-047>052-055>060-089>105-190500-
NORTHEAST KENTUCKY

CITY           SKY/WX    TMP DP  RH WIND       PRES   REMARKS
LEXINGTON      CLEAR     53  44  71 S7        30.23S
COVINGTON      CLEAR     51  45  79 S6        30.19F
FRANKFORT      CLEAR     48  42  80 SW5       30.21S
$$

KYZ054-064>069-076>088-106>120-190500-
SOUTHEAST KENTUCKY

CITY           SKY/WX    TMP DP  RH WIND       PRES   REMARKS
JACKSON        CLEAR     54  45  71 CALM      30.25F
LONDON         CLEAR     47  45  93 CALM      30.26S FOG
SOMERSET       CLEAR     45  45 100 CALM      30.27F
MIDDLESBORO    CLEAR     45  45 100 CALM      30.30S
MONTICELLO     CLEAR     43  42  97 W9        30.27F
$$





USA.gov is the U.S. government's official web portal to all federal, state and local government web resources and services.